UAL7815 OSDI-OLBA

Flight info

Callsign UAL7815
Flight time 0h 35m
Altitude 16000
Route LEBOR
Aircraft A20N/M-SDE2E3FGHIRWXY/LB1

Departure

Time 2026-04-26 19:59
Airport Damascus International Airport (OSDI)

Arrival

Time 2026-04-26 20:35
Airport Beirut Rafic Hariri International Airport (OLBA)
Time Latitude Longitude Altitude Speed Heading
2026-04-26 19:46 33.41221 36.51463 2011 ft 0 kts 232°
2026-04-26 19:50 33.41226 36.51470 2010 ft 4 kts 232°
2026-04-26 19:51 33.41255 36.51515 2009 ft 7 kts 232°
2026-04-26 19:51 33.41277 36.51568 2006 ft 7 kts 289°
2026-04-26 19:51 33.41263 36.51589 2007 ft 0 kts 332°
2026-04-26 19:52 33.41270 36.51580 2007 ft 7 kts 310°
2026-04-26 19:52 33.41288 36.51522 2005 ft 8 kts 283°
2026-04-26 19:52 33.41317 36.51460 2007 ft 9 kts 306°
2026-04-26 19:53 33.41375 36.51421 2008 ft 10 kts 343°
2026-04-26 19:53 33.41458 36.51399 2008 ft 14 kts 354°
2026-04-26 19:53 33.41563 36.51401 2008 ft 16 kts
2026-04-26 19:53 33.41680 36.51397 2008 ft 18 kts 339°
2026-04-26 19:54 33.41769 36.51321 2008 ft 16 kts 317°
2026-04-26 19:54 33.41863 36.51232 2008 ft 16 kts 342°
2026-04-26 19:54 33.41941 36.51290 2007 ft 15 kts 44°
2026-04-26 19:54 33.42017 36.51395 2009 ft 18 kts 50°
2026-04-26 19:55 33.42075 36.51460 2009 ft 8 kts 43°
2026-04-26 19:55 33.42136 36.51542 2007 ft 21 kts 49°
2026-04-26 19:55 33.42240 36.51695 2005 ft 26 kts 52°
2026-04-26 19:55 33.42352 36.51856 2004 ft 25 kts 49°
2026-04-26 19:56 33.42473 36.52019 2005 ft 27 kts 48°
2026-04-26 19:56 33.42604 36.52191 2004 ft 29 kts 47°
2026-04-26 19:56 33.42744 36.52366 2004 ft 30 kts 45°
2026-04-26 19:56 33.42885 36.52561 2004 ft 32 kts 50°
2026-04-26 19:57 33.43030 36.52765 2002 ft 32 kts 49°
2026-04-26 19:57 33.43183 36.52970 2005 ft 33 kts 47°
2026-04-26 19:57 33.43347 36.53173 2005 ft 34 kts 52°
2026-04-26 19:57 33.43463 36.53347 2003 ft 18 kts 36°
2026-04-26 19:58 33.43532 36.53354 2004 ft 0 kts 337°
2026-04-26 19:58 33.43533 36.53354 2004 ft 1 kts 337°
2026-04-26 19:58 33.43582 36.53278 2004 ft 15 kts 288°
2026-04-26 19:58 33.43576 36.53205 2003 ft 2 kts 240°
2026-04-26 19:59 33.43542 36.53154 2007 ft 40 kts 229°
2026-04-26 19:59 33.43133 36.52605 2005 ft 132 kts 228°
2026-04-26 19:59 33.42400 36.51595 2276 ft 177 kts 229°
2026-04-26 19:59 33.41609 36.50493 3312 ft 174 kts 226°
2026-04-26 20:00 33.40792 36.49366 4212 ft 186 kts 226°
2026-04-26 20:00 33.39891 36.48129 4826 ft 207 kts 226°
2026-04-26 20:00 33.38886 36.46747 5368 ft 232 kts 226°
2026-04-26 20:00 33.37779 36.45224 6076 ft 253 kts 227°
2026-04-26 20:01 33.36582 36.43571 6799 ft 271 kts 227°
2026-04-26 20:01 33.35340 36.41855 7880 ft 272 kts 227°
2026-04-26 20:01 33.34112 36.40135 9061 ft 273 kts 233°
2026-04-26 20:01 33.33356 36.38081 10156 ft 278 kts 257°
2026-04-26 20:02 33.33365 36.35701 10873 ft 302 kts 278°
2026-04-26 20:02 33.34231 36.33284 11393 ft 334 kts 300°
2026-04-26 20:02 33.35937 36.31255 11943 ft 359 kts 322°
2026-04-26 20:02 33.37426 36.30350 12520 ft 368 kts 336°
2026-04-26 20:03 33.40900 36.29851 13621 ft 389 kts
2026-04-26 20:03 33.43559 36.30635 14397 ft 397 kts 19°
2026-04-26 20:03 33.46157 36.31785 15273 ft 400 kts 20°
2026-04-26 20:03 33.48785 36.32917 15753 ft 402 kts 18°
2026-04-26 20:04 33.51453 36.33941 15958 ft 402 kts 15°
2026-04-26 20:04 33.54144 36.34866 16018 ft 402 kts 14°
2026-04-26 20:04 33.56811 36.35739 16015 ft 402 kts 14°
2026-04-26 20:04 33.59519 36.36610 16015 ft 402 kts 14°
2026-04-26 20:05 33.62226 36.37475 16008 ft 402 kts 13°
2026-04-26 20:05 33.64928 36.38340 15998 ft 401 kts 13°
2026-04-26 20:05 33.67626 36.39204 16001 ft 401 kts 13°
2026-04-26 20:05 33.70325 36.40070 15995 ft 402 kts 13°
2026-04-26 20:06 33.73022 36.40936 15988 ft 401 kts 13°
2026-04-26 20:06 33.75725 36.41806 15983 ft 401 kts 13°
2026-04-26 20:06 33.78388 36.42663 15982 ft 400 kts 13°
2026-04-26 20:06 33.81086 36.43534 15988 ft 401 kts 13°
2026-04-26 20:07 33.83778 36.44402 15988 ft 401 kts 13°
2026-04-26 20:07 33.86470 36.45271 15992 ft 400 kts 13°
2026-04-26 20:07 33.89162 36.46142 15994 ft 400 kts 13°
2026-04-26 20:07 33.91846 36.47011 15997 ft 400 kts 13°
2026-04-26 20:08 33.94536 36.47883 15996 ft 400 kts 13°
2026-04-26 20:08 33.97231 36.48756 16001 ft 399 kts 13°
2026-04-26 20:08 33.99905 36.49623 15995 ft 397 kts 13°
2026-04-26 20:08 34.02588 36.50494 15999 ft 399 kts 13°
2026-04-26 20:09 34.05259 36.51363 15995 ft 398 kts 13°
2026-04-26 20:09 34.07928 36.52232 15998 ft 397 kts 13°
2026-04-26 20:09 34.10552 36.53085 16002 ft 396 kts 13°
2026-04-26 20:09 34.13216 36.53951 15996 ft 397 kts 13°
2026-04-26 20:10 34.15884 36.54821 15990 ft 397 kts 13°
2026-04-26 20:10 34.18556 36.55618 15982 ft 394 kts
2026-04-26 20:10 34.21259 36.55602 15988 ft 386 kts 346°
2026-04-26 20:10 34.23769 36.54578 15988 ft 377 kts 327°
2026-04-26 20:11 34.25815 36.52676 15989 ft 366 kts 307°
2026-04-26 20:11 34.27177 36.50135 15990 ft 356 kts 288°
2026-04-26 20:11 34.27716 36.47301 15990 ft 349 kts 269°
2026-04-26 20:12 34.27520 36.41483 15989 ft 346 kts 264°
2026-04-26 20:12 34.27445 36.38575 15992 ft 347 kts 266°
2026-04-26 20:12 34.27458 36.35649 15990 ft 348 kts 268°
2026-04-26 20:12 34.27529 36.32709 15992 ft 349 kts 268°
2026-04-26 20:13 34.27627 36.29783 15987 ft 349 kts 269°
2026-04-26 20:13 34.27736 36.26846 15986 ft 348 kts 269°
2026-04-26 20:13 34.27843 36.23921 15991 ft 350 kts 269°
2026-04-26 20:13 34.27953 36.20975 15988 ft 350 kts 269°
2026-04-26 20:14 34.28063 36.18030 15988 ft 350 kts 269°
2026-04-26 20:14 34.28171 36.15088 15988 ft 350 kts 269°
2026-04-26 20:14 34.28276 36.12147 15982 ft 350 kts 269°
2026-04-26 20:14 34.28381 36.09201 15982 ft 351 kts 269°
2026-04-26 20:15 34.28484 36.06288 15979 ft 351 kts 269°
2026-04-26 20:15 34.28587 36.03335 15974 ft 351 kts 269°
2026-04-26 20:15 34.28688 36.00381 15979 ft 351 kts 269°
2026-04-26 20:15 34.28801 35.97445 15805 ft 349 kts 269°
2026-04-26 20:16 34.28937 35.94516 15412 ft 349 kts 269°
2026-04-26 20:16 34.29079 35.91602 14692 ft 345 kts 269°
2026-04-26 20:16 34.29172 35.89689 14194 ft 343 kts 269°
2026-04-26 20:16 34.29308 35.86825 13387 ft 339 kts 269°
2026-04-26 20:17 34.29437 35.83994 12557 ft 337 kts 269°
2026-04-26 20:17 34.29562 35.81142 11750 ft 341 kts 269°
2026-04-26 20:17 34.29686 35.78260 10969 ft 346 kts 269°
2026-04-26 20:17 34.29811 35.75342 10351 ft 345 kts 269°
2026-04-26 20:18 34.29925 35.72511 10099 ft 331 kts 268°
2026-04-26 20:18 34.29678 35.69801 9985 ft 314 kts 252°
2026-04-26 20:18 34.28950 35.67416 9784 ft 291 kts 240°
2026-04-26 20:18 34.28050 35.65304 9333 ft 282 kts 240°
2026-04-26 20:19 34.27166 35.63212 8790 ft 277 kts 240°
2026-04-26 20:19 34.26289 35.61150 8265 ft 272 kts 237°
2026-04-26 20:19 34.25045 35.59497 7739 ft 262 kts 211°
2026-04-26 20:19 34.23416 35.58708 7241 ft 255 kts 190°
2026-04-26 20:20 34.21685 35.58288 6743 ft 253 kts 189°
2026-04-26 20:20 34.19964 35.57871 6241 ft 251 kts 190°
2026-04-26 20:20 34.18254 35.57453 5714 ft 250 kts 190°
2026-04-26 20:20 34.16558 35.57037 5194 ft 248 kts 191°
2026-04-26 20:21 34.14870 35.56621 4680 ft 247 kts 191°
2026-04-26 20:21 34.13195 35.56207 4218 ft 243 kts 191°
2026-04-26 20:21 34.11582 35.55810 4026 ft 228 kts 191°
2026-04-26 20:21 34.10035 35.55425 4004 ft 233 kts 191°
2026-04-26 20:22 34.08439 35.55033 4000 ft 237 kts 191°
2026-04-26 20:22 34.06834 35.54633 3998 ft 235 kts 190°
2026-04-26 20:22 34.05211 35.54480 3974 ft 234 kts 176°
2026-04-26 20:22 34.03592 35.54667 3811 ft 234 kts 174°
2026-04-26 20:23 34.01969 35.54859 3659 ft 233 kts 175°
2026-04-26 20:23 34.00359 35.55032 3441 ft 233 kts 175°
2026-04-26 20:23 33.98742 35.55194 3229 ft 233 kts 175°
2026-04-26 20:23 33.97126 35.55352 3075 ft 232 kts 176°
2026-04-26 20:24 33.95516 35.55504 2934 ft 232 kts 176°
2026-04-26 20:24 33.93906 35.55657 2802 ft 230 kts 176°
2026-04-26 20:24 33.92326 35.55626 2486 ft 227 kts 190°
2026-04-26 20:24 33.90835 35.55024 2204 ft 229 kts 203°
2026-04-26 20:25 33.89371 35.54274 2150 ft 227 kts 202°
2026-04-26 20:25 33.88413 35.53788 2120 ft 220 kts 202°
2026-04-26 20:25 33.86663 35.52893 2106 ft 192 kts 203°
2026-04-26 20:25 33.85497 35.52285 2097 ft 173 kts 203°
2026-04-26 20:26 33.84642 35.51441 2095 ft 155 kts 244°
2026-04-26 20:26 33.84637 35.50096 2765 ft 178 kts 284°
2026-04-26 20:26 33.85414 35.48696 2745 ft 227 kts 316°
2026-04-26 20:26 33.86931 35.47729 2956 ft 276 kts 342°
2026-04-26 20:27 33.88893 35.46756 2739 ft 326 kts 326°
2026-04-26 20:27 33.90764 35.45265 2373 ft 317 kts 332°
2026-04-26 20:27 33.92860 35.44983 2168 ft 317 kts 15°
2026-04-26 20:27 33.94940 35.46117 2095 ft 326 kts 24°
2026-04-26 20:28 33.97068 35.46757 2103 ft 305 kts
2026-04-26 20:28 33.99043 35.47440 2092 ft 286 kts 27°
2026-04-26 20:28 34.00490 35.48905 2095 ft 263 kts 60°
2026-04-26 20:28 34.01051 35.50872 2098 ft 239 kts 90°
2026-04-26 20:29 34.01080 35.52789 2094 ft 225 kts 93°
2026-04-26 20:29 34.00811 35.54548 2095 ft 205 kts 122°
2026-04-26 20:29 33.99859 35.55656 2131 ft 181 kts 158°
2026-04-26 20:29 33.98705 35.55797 2101 ft 158 kts 186°
2026-04-26 20:30 33.97684 35.55602 2095 ft 139 kts 192°
2026-04-26 20:30 33.96783 35.55365 2124 ft 132 kts 192°
2026-04-26 20:30 33.95860 35.55123 2101 ft 135 kts 192°
2026-04-26 20:30 33.94953 35.54904 2099 ft 134 kts 188°
2026-04-26 20:31 33.94020 35.54866 2099 ft 134 kts 173°
2026-04-26 20:31 33.93107 35.55085 2099 ft 135 kts 169°
2026-04-26 20:31 33.92176 35.55038 2103 ft 134 kts 199°
2026-04-26 20:31 33.91299 35.54654 2094 ft 136 kts 199°
2026-04-26 20:32 33.90394 35.54276 1940 ft 135 kts 199°
2026-04-26 20:32 33.89519 35.53917 1754 ft 133 kts 199°
2026-04-26 20:32 33.88626 35.53546 1575 ft 138 kts 200°
2026-04-26 20:32 33.87709 35.53159 1383 ft 140 kts 199°
2026-04-26 20:33 33.86794 35.52771 1201 ft 139 kts 199°
2026-04-26 20:33 33.85898 35.52389 1018 ft 137 kts 199°
2026-04-26 20:33 33.85014 35.51989 833 ft 134 kts 207°
2026-04-26 20:33 33.84189 35.51463 683 ft 137 kts 207°
2026-04-26 20:34 33.83377 35.50886 475 ft 134 kts 213°
2026-04-26 20:34 33.82602 35.50239 210 ft 136 kts 212°
2026-04-26 20:34 33.81837 35.49646 92 ft 126 kts 211°
2026-04-26 20:34 33.81161 35.49137 74 ft 105 kts 211°
2026-04-26 20:35 33.80722 35.48785 72 ft 24 kts 227°
2026-04-26 20:35 33.80636 35.48638 67 ft 23 kts 240°
2026-04-26 20:35 33.80608 35.48578 70 ft 0 kts 241°
2026-04-26 20:35 33.80594 35.48544 75 ft 14 kts 243°
2026-04-26 20:36 33.80569 35.48407 71 ft 19 kts 285°
2026-04-26 20:36 33.80683 35.48350 69 ft 22 kts 20°
2026-04-26 20:36 33.80821 35.48453 70 ft 25 kts 36°
2026-04-26 20:36 33.80969 35.48581 71 ft 28 kts 34°
2026-04-26 20:37 33.81139 35.48726 72 ft 32 kts 36°
2026-04-26 20:37 33.81308 35.48873 77 ft 30 kts 35°
2026-04-26 20:37 33.81487 35.49023 72 ft 33 kts 34°
2026-04-26 20:37 33.81682 35.49186 72 ft 35 kts 36°
2026-04-26 20:38 33.81883 35.49355 77 ft 36 kts 34°
2026-04-26 20:38 33.82071 35.49505 74 ft 21 kts
2026-04-26 20:38 33.82168 35.49421 80 ft 17 kts 345°
2026-04-26 20:38 33.82279 35.49485 79 ft 20 kts 38°
2026-04-26 20:39 33.82355 35.49458 81 ft 0 kts 315°